Location: Asheville, NC
(35.6000°N, 82.5500°W)
Time: 05:07:49
(UTC-04:00)

Hubble Space Telescope - Pass Details

Date: 07 December 2017
Orbit: 537 x 541 km, 28.5° (Epoch: 22 April)

Event Time Altitude Azimuth Distance (km) Brightness Sun altitude
Rises 19:52:48 0° 240° (WSW) 2,674 5.3 -30.9°
Reaches altitude 10° 19:55:19 10° 227° (SW) 1,784 4.0 -31.5°
Enters shadow 19:56:14 15° 218° (SW) 1,507 3.5 -31.6°
